McCall, ID

7:23 AM MST on February 23, 2017 (GMT -0700)
McCall

Weather History for KMYL - March, 2011

Change the Weather History Date:

Monday, March 21, 2011

  Actual Average Record
Temperature  
Mean Temperature 34 °F 30 °F  
Max Temperature 38 °F 41 °F 60 °F (1978)
Min Temperature 30 °F 20 °F -5 °F (1952)
Degree Days  
Heating Degree Days 31 35  
Month to date heating degree days 772 782  
Since 1 July heating degree days 6945 7457  
Cooling Degree Days 0 0  
Month to date cooling degree days 0 0  
Year to date cooling degree days 0 0  
Moisture  
Dew Point 30 °F    
Average Humidity 88    
Maximum Humidity 100    
Minimum Humidity 76    
Precipitation  
Precipitation 0.26 in 0.08 in 0.79 in (1958)
Month to date precipitation 3.17 1.37  
Year to date precipitation 7.13 4.84  
Sea Level Pressure  
Sea Level Pressure 29.52 in    
Wind  
Wind Speed 4 mph (SW)    
Max Wind Speed 14 mph    
Max Gust Speed 21 mph    
Visibility 6 miles    
Events Fog , Rain , Snow    
T = Trace of Precipitation, MM = Missing Value Source: NWS Daily Summary

Daily Weather History Graph

Daily Weather History Graph

Search for Another Location

Airport or City:

Trip Planner

Search our weather history database for the weather conditions in past years. The results will help you decide how hot, cold, wet, or windy it might be!

Date:

Astronomy

Mar. 21, 2011 Rise Set
Actual Time 7:45 AM MDT 7:57 PM MDT
Civil Twilight 7:16 AM MDT 8:27 PM MDT
Nautical Twilight 6:42 AM MDT 9:01 PM MDT
Astronomical Twilight 6:07 AM MDT 9:36 PM MDT
Moon 11:09 PM MDT (3/21) 8:21 AM MDT (3/21)
Length of Visible Light 13h 10m
Length of Day
12h 11m
Waning Gibbous, 94% of the Moon is Illuminated
Mar 21
Waning Gibbous
Mar 26
Last Quarter
Apr 3
New
Apr 11
First Quarter
Apr 17
Full

Hourly Weather History & Observations

Time (MDT) Temp. Windchill Dew Point Humidity Pressure Visibility Wind Dir Wind Speed Gust Speed Precip Events Conditions
12:51 AM 35.1 °F 31.0 °F 30.9 °F 85% 29.58 in 10.0 mi South 4.6 mph - N/A   Overcast
1:06 AM 35.6 °F 29.2 °F 30.2 °F 81% 29.53 in 10.0 mi South 8.1 mph - 0.00 in Rain Light Rain
1:51 AM 34.0 °F 28.0 °F 32.0 °F 92% 29.57 in 10.0 mi South 6.9 mph - 0.01 in Rain Light Rain
2:51 AM 33.1 °F 30.0 °F 32.0 °F 96% 29.56 in 10.0 mi SSE 3.5 mph - 0.02 in Rain Light Rain
3:28 AM 33.8 °F - 32.0 °F 93% 29.51 in 10.0 mi Calm Calm - 0.00 in Rain Light Rain
3:38 AM 33.8 °F - 32.0 °F 93% 29.51 in 10.0 mi Calm Calm - N/A Snow Light Snow
3:51 AM 33.1 °F - 30.9 °F 92% 29.54 in 5.0 mi Calm Calm - 0.01 in Snow Light Snow
4:51 AM 33.1 °F - 30.9 °F 92% 29.51 in 5.0 mi Calm Calm - 0.01 in Snow Light Snow
5:51 AM 33.1 °F - 30.9 °F 92% 29.49 in 7.0 mi Calm Calm - 0.01 in Snow Light Snow
6:47 AM 33.8 °F 30.8 °F 32.0 °F 93% 29.46 in 7.0 mi East 3.5 mph - 0.00 in   Overcast
6:51 AM 33.1 °F 30.0 °F 32.0 °F 96% 29.49 in 7.0 mi East 3.5 mph - 0.00 in   Overcast
7:41 AM 33.8 °F - 32.0 °F 93% 29.45 in 6.0 mi Calm Calm - 0.01 in Snow Light Snow
7:51 AM 33.1 °F - 32.0 °F 96% 29.48 in 9.0 mi Calm Calm - 0.01 in   Overcast
8:51 AM 34.0 °F - 32.0 °F 92% 29.47 in 6.0 mi Calm Calm - 0.00 in   Overcast
9:34 AM 33.8 °F 27.0 °F 30.2 °F 87% 29.45 in 10.0 mi SE 8.1 mph - N/A   Overcast
9:51 AM 33.1 °F 27.7 °F 30.9 °F 92% 29.47 in 10.0 mi ESE 5.8 mph - N/A   Overcast
11:51 AM 35.1 °F 32.2 °F 32.0 °F 89% 29.47 in 10.0 mi SSE 3.5 mph - N/A   Mostly Cloudy
1:51 PM 36.0 °F 29.0 °F 30.9 °F 82% 29.47 in 10.0 mi South 9.2 mph - N/A   Mostly Cloudy
2:51 PM 36.0 °F 33.3 °F 30.9 °F 82% 29.47 in 10.0 mi South 3.5 mph - 0.00 in   Overcast
3:51 PM 37.0 °F - 30.9 °F 79% 29.46 in 10.0 mi Calm Calm - N/A   Scattered Clouds
4:51 PM 37.0 °F 33.3 °F 30.9 °F 79% 29.47 in 10.0 mi SSW 4.6 mph - N/A   Scattered Clouds
5:51 PM 37.9 °F 33.5 °F 30.0 °F 73% 29.47 in 10.0 mi SW 5.8 mph - N/A   Mostly Cloudy
6:51 PM 36.0 °F 30.3 °F 32.0 °F 86% 29.50 in 10.0 mi NW 6.9 mph - N/A   Mostly Cloudy
7:39 PM 35.6 °F 32.8 °F 30.2 °F 81% 29.49 in 9.0 mi West 3.5 mph - 0.00 in Rain Light Rain
7:51 PM 34.0 °F 28.0 °F 32.0 °F 92% 29.52 in 6.0 mi SW 6.9 mph - 0.00 in Snow Light Snow
7:59 PM 33.8 °F 27.7 °F 32.0 °F 93% 29.50 in 2.5 mi SSW 6.9 mph - 0.00 in Snow Light Snow
8:06 PM 32.0 °F 27.5 °F 32.0 °F 100% 29.50 in 1.0 mi SSW 4.6 mph - 0.02 in Snow Light Snow
8:13 PM 32.0 °F - 32.0 °F 100% 29.50 in 0.5 mi Calm Calm - 0.04 in Fog , Snow Snow
8:34 PM 32.0 °F 27.5 °F 30.2 °F 93% 29.51 in 0.8 mi SSW 4.6 mph - 0.10 in Snow Light Snow
8:42 PM 32.0 °F 28.7 °F 32.0 °F 100% 29.52 in 1.0 mi SSW 3.5 mph - 0.11 in Snow Light Snow
9:02 PM 32.0 °F - 30.2 °F 93% 29.52 in 2.0 mi Calm Calm - 0.00 in Snow Light Snow
9:36 PM 32.0 °F 28.7 °F 30.2 °F 93% 29.54 in 1.8 mi Variable 3.5 mph - 0.01 in Snow Light Snow
9:51 PM 30.9 °F 26.2 °F 28.9 °F 92% 29.60 in 1.2 mi SW 4.6 mph - 0.02 in Snow Light Snow
10:19 PM 30.2 °F 25.4 °F 28.4 °F 93% 29.56 in 1.2 mi Variable 4.6 mph - 0.02 in Snow Light Snow
10:23 PM 30.2 °F 23.4 °F 28.4 °F 93% 29.56 in 1.0 mi WNW 6.9 mph - 0.02 in Snow Light Snow
10:28 PM 30.2 °F 21.3 °F 28.4 °F 93% 29.56 in 0.8 mi WNW 10.4 mph 17.3 mph 0.03 in Snow Light Snow
10:36 PM 30.2 °F 20.8 °F 28.4 °F 93% 29.57 in 0.5 mi NW 11.5 mph - 0.04 in Fog , Snow Snow
10:48 PM 30.2 °F 20.8 °F 28.4 °F 93% 29.57 in 0.8 mi WNW 11.5 mph - 0.04 in Snow Light Snow
10:51 PM 30.9 °F 21.2 °F 28.0 °F 89% 29.62 in 1.0 mi WNW 12.7 mph 18.4 mph 0.05 in Snow Light Snow
10:57 PM 30.2 °F 20.2 °F 28.4 °F 93% 29.58 in 1.0 mi WNW 12.7 mph 20.7 mph 0.00 in Snow Light Snow
11:05 PM 30.2 °F 20.2 °F 28.4 °F 93% 29.58 in 1.2 mi WNW 12.7 mph 19.6 mph 0.00 in Snow Light Snow
11:17 PM 30.2 °F 20.8 °F 28.4 °F 93% 29.59 in 2.0 mi WNW 11.5 mph - 0.00 in Snow Light Snow
11:30 PM 30.2 °F 23.4 °F 28.4 °F 93% 29.60 in 4.0 mi WNW 6.9 mph - 0.00 in Snow Light Snow
11:44 PM 30.2 °F 21.9 °F 28.4 °F 93% 29.60 in 8.0 mi WNW 9.2 mph - 0.00 in Snow Light Snow
11:51 PM 30.0 °F 23.2 °F 28.0 °F 92% 29.65 in 9.0 mi WNW 6.9 mph - 0.00 in   Overcast